Gastonia, NC

12:38 PM EDT on August 30, 2016 (GMT -0400)
Gastonia Municipal

Weather History for KAKH - October, 2013

Change the Weather History Date:

Thursday, October 24, 2013

  Actual Average (KCLT) Record (KCLT)
Temperature  
Mean Temperature 46 °F 58 °F  
Max Temperature 60 °F 70 °F 88 °F (1939)
Min Temperature 32 °F 46 °F 28 °F (2006)
Degree Days  
Heating Degree Days 19 8  
Month to date heating degree days 122  
Since 1 July heating degree days 145  
Cooling Degree Days 0 1  
Month to date cooling degree days 37  
Year to date cooling degree days 1512  
Moisture  
Dew Point 35 °F    
Average Humidity 68    
Maximum Humidity 96    
Minimum Humidity 38    
Precipitation  
Precipitation 0.00 in 0.10 in 0.85 in (1913)
Month to date precipitation 2.72  
Year to date precipitation 34.56  
Snow  
Snow 0.00 in 0.00 in 0.00 in ()
Month to date snowfall 0.0  
Since 1 July snowfall 0.0  
Since 1 September snowfall 0.0  
Snow Depth -    
Sea Level Pressure  
Sea Level Pressure 30.13 in    
Wind  
Wind Speed 2 mph (WNW)    
Max Wind Speed 8 mph    
Max Gust Speed -    
Visibility 10 miles    
Events      
T = Trace of Precipitation, MM = Missing Value Source: NWS Daily Summary

Daily Weather History Graph

Daily Weather History Graph

Search for Another Location

Airport or City:

Trip Planner

Search our weather history database for the weather conditions in past years. The results will help you decide how hot, cold, wet, or windy it might be!

Date:

Astronomy

Oct. 24, 2013 Rise Set
Actual Time 7:38 AM EDT 6:38 PM EDT
Civil Twilight 7:12 AM EDT 7:04 PM EDT
Nautical Twilight 6:43 AM EDT 7:33 PM EDT
Astronomical Twilight 6:13 AM EDT 8:03 PM EDT
Moon 11:05 PM EDT (10/24) 12:33 PM EDT (10/24)
Length of Visible Light 11h 51m
Length of Day
10h 59m
Waning Gibbous, 71% of the Moon is Illuminated
Oct 24
Waning Gibbous
Oct 26
Last Quarter
Nov 3
New
Nov 10
First Quarter
Nov 17
Full

Hourly Weather History & Observations

Time (EDT) Temp. Windchill Dew Point Humidity Pressure Visibility Wind Dir Wind Speed Gust Speed Precip Events Conditions
12:54 AM 37.0 °F - 34.0 °F 89% 30.07 in 10.0 mi Calm Calm - N/A   Clear
1:54 AM 35.1 °F - 33.1 °F 92% 30.09 in 10.0 mi Calm Calm - N/A   Clear
2:54 AM 36.0 °F 33.3 °F 33.1 °F 89% 30.09 in 10.0 mi NNE 3.5 mph - N/A   Clear
3:54 AM 35.1 °F - 33.1 °F 92% 30.09 in 9.0 mi Calm Calm - N/A   Clear
4:54 AM 33.1 °F - 32.0 °F 96% 30.11 in 9.0 mi Calm Calm - N/A   Clear
5:54 AM 33.1 °F - 30.9 °F 92% 30.12 in 9.0 mi Calm Calm - N/A   Clear
6:54 AM 33.1 °F - 30.9 °F 92% 30.14 in 9.0 mi Calm Calm - N/A   Clear
7:54 AM 32.0 °F - 30.9 °F 96% 30.16 in 7.0 mi Calm Calm - N/A   Clear
8:54 AM 39.9 °F - 37.0 °F 89% 30.18 in 10.0 mi Calm Calm - N/A   Clear
9:54 AM 46.9 °F - 33.1 °F 59% 30.19 in 10.0 mi SW 3.5 mph - N/A   Clear
10:54 AM 50.0 °F - 30.9 °F 48% 30.18 in 10.0 mi Variable 3.5 mph - N/A   Clear
11:54 AM 53.1 °F - 30.9 °F 43% 30.17 in 10.0 mi SW 8.1 mph - N/A   Clear
12:54 PM 55.0 °F - 33.1 °F 43% 30.15 in 10.0 mi SW 6.9 mph - N/A   Clear
1:54 PM 57.0 °F - 34.0 °F 42% 30.13 in 10.0 mi Variable 5.8 mph - N/A   Clear
2:54 PM 59.0 °F - 34.0 °F 39% 30.10 in 10.0 mi Variable 4.6 mph - N/A   Clear
3:54 PM 60.1 °F - 34.0 °F 38% 30.10 in 10.0 mi Variable 4.6 mph - N/A   Overcast
4:54 PM 59.0 °F - 34.0 °F 39% 30.10 in 10.0 mi Calm Calm - N/A   Clear
5:10 PM 59.0 °F - 35.6 °F 42% 30.09 in 10.0 mi Variable 3.5 mph - 0.00 in   Partly Cloudy
5:54 PM 57.9 °F - 36.0 °F 44% 30.10 in 10.0 mi Calm Calm - 0.00 in   Overcast
6:54 PM 53.1 °F - 42.1 °F 66% 30.12 in 10.0 mi Calm Calm - N/A   Overcast
7:54 PM 50.0 °F - 43.0 °F 77% 30.14 in 10.0 mi Calm Calm - N/A   Overcast
8:54 PM 48.9 °F - 43.0 °F 80% 30.15 in 10.0 mi Calm Calm - N/A   Overcast
9:54 PM 50.0 °F - 39.9 °F 68% 30.16 in 10.0 mi North 4.6 mph - N/A   Mostly Cloudy
10:54 PM 46.9 °F - 39.0 °F 74% 30.17 in 10.0 mi North 3.5 mph - N/A   Partly Cloudy
11:54 PM 48.0 °F - 39.0 °F 71% 30.17 in 10.0 mi Calm Calm - N/A   Overcast